SCP
0 0 0 0 0 0 0 -0 0 0 0 0 -0 -0 -0 0 0 0 -0 -0 0 0 0 0 0 0 0 0 0 0 0 0 1 1 1 1 0 0 1 1 1 1 1 1
0 0 0 0 0 0 0 0 0 0 0 0 0 -0 0 0 0 0 0 0 0 0 -0 0 0 0 0 -0 -0 -0 -0 0 1 1 1 1 1 1 1 1 1 1 1 1
0 0 0 0 0 0 0 0 0 0 0 0 0 0 0 0 0 0 0 0 0 0 0 0 0 0 0 0 -0 -1 -0 -0 1 1 2 0 0 0 1 1 1 1 1 1
0 0 0 0 0 0 0 0 0 0 0 0 0 0 0 0 0 0 0 0 0 0 -0 0 0 0 0 -0 0 0 1 1 2 2 2 1 2 2 1 1 1 1 1 1
0 0 0 0 0 0 0 0 0 0 0 0 0 0 -0 0 0 0 0 0 0 0 0 0 0 0 0 0 0 1 2 2 2 2 2 1 1 1 0 1 1 0 0 1
0 0 0 0 0 0 0 0 0 0 0 0 0 0 0 0 0 0 0 0 0 0 0 0 0 0 0 0 0 1 1 2 1 1 1 1 1 1 0 0 0 0 0 0
0 0 0 0 0 0 0 0 0 0 0 0 0 0 0 0 -0 0 0 -0 0 0 0 0 0 0 0 0 0 1 1 1 1 1 1 1 1 1 0 0 0 0 0 1
0 0 0 0 0 0 0 0 0 0 0 0 0 0 0 0 0 0 -0 0 0 0 0 0 0 0 0 0 0 0 1 1 1 1 1 1 1 1 1 0 0 1 1 1
0 0 0 0 0 0 0 0 0 0 0 0 0 0 0 0 0 0 0 0 -0 0 0 0 0 0 0 0 0 0 1 1 1 1 1 1 1 1 1 0 0 1 1 1
0 0 0 0 0 0 0 0 0 0 0 0 0 0 0 0 0 0 0 0 0 0 0 0 0 0 0 0 0 0 0 0 1 1 1 1 1 1 1 1 1 1 1 0
0 0 0 0 0 0 0 0 0 0 0 0 0 0 0 0 0 0 0 0 0 0 0 0 0 0 0 0 0 0 0 0 0 1 1 1 1 1 1 1 1 1 0 0
0 0 0 0 0 0 0 0 0 0 0 0 0 0 0 0 0 0 0 0 0 0 0 0 0 0 0 0 0 0 0 0 0 0 1 1 2 1 1 1 1 0 0 0
0 0 0 0 0 0 0 0 0 0 0 0 0 0 0 0 0 0 0 0 -0 -0 -0 0 0 0 0 0 0 0 0 0 0 0 0 0 0 0 0 0 0 0 0 0
0 0 0 0 0 0 0 0 0 0 0 0 0 0 0 0 0 0 0 0 0 0 0 0 0 0 0 0 0 0 0 0 0 0 0 0 0 0 0 0 0 0 0 0
0 0 0 0 0 0 0 0 0 0 0 0 0 0 0 0 0 0 0 0 0 0 0 0 0 0 0 0 0 0 0 0 0 0 0 0 0 0 0 0 0 0 0 0
0 0 0 0 0 0 0 0 0 0 0 0 0 0 0 0 0 0 0 0 0 0 0 0 0 0 0 0 0 0 0 0 0 0 0 0 0 0 0 0 0 0 0 0
0 0 0 0 0 0 0 0 0 0 0 0 0 0 0 0 0 0 0 0 0 0 0 0 0 0 0 0 0 0 0 0 0 0 0 0 1 0 0 0 0 0 0 0
0 0 0 0 0 0 0 0 0 0 0 0 0 0 0 0 0 0 0 0 0 0 0 0 0 0 0 0 0 0 0 0 0 0 0 0 0 0 0 0 0 0 0 0
0 0 0 0 0 0 0 0 0 0 0 0 0 0 0 0 0 0 0 0 0 0 0 0 0 0 0 0 0 0 0 0 0 0 0 0 0 0 0 0 0 0 0 0
0 0 0 0 0 0 0 0 0 0 0 0 0 0 0 0 0 0 0 0 0 0 0 0 0 0 0 0 0 0 0 0 0 0 0 0 0 0 0 0 0 0 0 0
0 0 0 0 0 0 0 0 0 0 0 0 0 0 0 0 0 0 0 0 0 0 0 0 0 0 0 0 0 0 0 0 0 0 0 0 0 0 0 0 0 0 0 0
0 0 0 0 0 0 0 0 0 0 0 0 0 0 0 0 0 0 0 0 0 0 0 0 0 0 0 0 0 0 0 0 0 0 0 0 0 0 0 0 0 0 0 0
0 0 0 0 0 0 0 0 0 0 0 0 0 0 0 0 0 0 0 0 0 0 0 -0 0 0 0 0 0 0 0 0 0 0 0 0 0 0 0 0 0 0 0 0
0 0 0 0 0 0 0 0 0 0 0 0 0 0 0 0 0 0 0 0 0 0 0 0 0 0 0 0 0 0 0 0 0 0 0 0 0 0 0 0 0 0 0 0
0 0 0 0 0 0 0 0 0 0 0 0 0 0 0 0 0 0 0 0 0 0 0 0 0 0 0 0 0 0 0 0 0 0 0 0 0 0 0 0 0 0 0 0
0 0 0 0 0 0 0 0 0 0 0 0 0 0 0 0 0 0 0 0 0 0 0 0 0 0 0 0 0 0 0 0 0 0 0 0 0 0 0 0 0 0 0 0
Wind_Speed_500mb
8 6 18 18 15 12 11 10 17 25 23 8 16 15 23 45 28 25 37 44 46 49 47 50 66 96 107 102 100 96 96 92 86 84 80 75 68 66 67 66 66 66 65 64
1 16 24 6 12 12 14 18 27 22 12 12 19 25 23 16 17 20 30 40 47 49 59 60 53 56 78 108 107 98 97 101 96 94 88 82 73 71 70 69 69 68 70 71
17 17 9 10 12 10 11 11 12 18 7 5 9 16 11 13 16 38 39 44 46 55 61 57 62 55 61 72 89 92 87 91 98 100 96 90 83 79 76 73 75 74 73 74
15 18 26 20 19 11 18 14 22 13 9 4 7 10 11 13 17 9 33 35 41 47 47 53 52 54 61 64 72 86 85 89 97 104 101 95 91 87 80 75 73 73 78 77
20 10 11 13 13 19 16 17 15 7 4 5 3 2 13 11 12 19 22 49 51 47 29 23 40 50 64 66 76 86 91 94 98 101 101 96 96 89 82 73 69 68 69 71
23 9 11 13 4 8 16 4 10 9 4 7 9 10 10 3 7 15 20 42 34 28 14 11 23 39 49 57 72 78 85 88 90 93 91 91 92 88 82 78 74 69 67 68
31 39 11 5 14 26 8 8 4 6 2 11 8 3 17 11 12 9 20 30 16 17 16 11 16 17 21 31 42 50 55 60 65 70 75 79 81 79 76 77 79 79 77 71
17 15 30 19 44 17 15 18 11 13 8 9 5 11 11 12 11 16 15 14 13 6 2 8 9 10 11 13 16 21 29 38 46 50 51 56 60 64 67 71 75 77 75 69
15 14 9 13 19 34 14 10 19 9 5 4 8 12 19 3 6 12 14 17 20 17 15 15 17 21 25 30 31 31 38 41 42 41 43 47 51 50 43 49 64 67 60 64
13 6 11 5 13 23 24 16 6 3 9 9 8 8 12 7 12 15 12 15 18 18 24 29 34 39 41 43 44 40 40 42 39 37 43 44 40 36 36 44 52 60 59 59
11 8 9 1 12 20 8 8 4 10 11 12 7 12 15 19 16 16 20 39 26 23 34 31 31 43 57 59 59 56 50 47 47 48 54 53 52 46 41 40 42 52 57 62
20 8 8 20 7 2 6 15 14 10 12 6 9 13 10 16 14 16 34 40 45 64 62 64 63 61 64 69 74 72 65 60 58 57 62 63 60 51 46 42 38 40 50 58
20 12 2 15 10 3 11 14 10 8 7 13 10 11 8 1 11 32 35 60 68 73 74 78 84 88 81 66 77 81 81 76 70 71 72 72 67 61 54 45 38 39 43 52
44 11 16 20 13 9 10 12 12 14 8 9 11 10 8 13 15 26 58 65 67 71 70 70 72 76 68 62 61 83 87 82 82 85 86 84 78 70 60 50 46 45 45 48
19 17 13 12 11 8 7 11 17 12 10 13 13 18 12 15 17 29 47 55 55 62 68 68 71 69 67 67 54 53 73 86 91 95 98 99 86 75 66 60 56 52 53 55
6 8 11 9 12 13 10 16 14 8 9 13 9 26 18 36 32 30 34 33 42 44 42 47 49 47 49 52 53 48 54 66 69 83 95 102 93 77 69 65 63 60 62 68
16 14 9 10 8 7 11 18 21 15 11 17 19 27 9 8 11 14 11 21 27 34 36 40 42 42 40 38 40 46 50 49 47 50 53 70 88 85 76 73 70 72 76 76
8 10 6 8 6 9 11 8 11 13 16 17 13 10 8 15 23 9 20 16 17 21 27 32 37 41 35 31 30 33 37 36 38 43 50 58 64 69 67 68 72 77 82 82
9 9 7 9 8 11 11 5 12 9 13 11 10 11 9 14 3 14 24 21 18 21 25 29 32 32 31 32 33 29 27 26 24 22 20 25 31 41 51 63 69 72 76 80
12 10 8 5 8 21 7 9 14 10 29 13 15 7 2 10 2 6 18 23 25 28 31 34 37 40 40 40 35 36 34 36 39 43 41 41 39 40 43 52 62 70 73 80
7 3 21 7 10 13 10 21 22 12 19 17 20 16 12 5 5 7 20 27 31 28 29 30 34 37 37 38 40 46 46 46 44 42 41 39 37 34 35 38 42 56 70 72
17 16 8 6 6 30 19 10 19 8 14 29 22 13 7 2 11 16 24 29 36 41 40 39 41 41 44 47 50 51 49 49 49 45 45 50 52 53 60 61 63 53 57 68
20 16 13 16 14 9 4 11 20 14 28 14 15 7 6 9 12 27 28 31 34 38 40 38 32 34 42 50 51 53 52 54 54 54 45 48 48 47 50 51 53 53 63 67
3 6 8 6 5 12 35 31 29 24 20 11 2 9 12 20 20 25 35 30 36 34 34 32 37 47 52 54 50 49 52 50 43 43 47 44 42 42 44 44 44 45 38 44
5 8 13 2 11 30 30 25 20 15 10 13 12 11 15 7 12 6 33 33 31 29 28 30 39 48 47 45 44 41 45 49 42 40 39 39 38 36 32 20 20 25 22 17
9 12 14 16 18 14 13 17 4 11 11 14 23 17 22 18 20 25 31 27 23 25 32 42 44 34 32 33 32 32 34 32 33 33 26 22 18 15 17 20 10 2 5 16
Wind_Direction_500mb
200 151 227 214 201 223 282 271 267 265 267 258 271 263 275 295 303 283 270 261 265 265 283 272 245 239 239 237 236 235 235 234 230 228 227 228 232 231 236 240 239 236 234 236
71 230 237 209 191 217 230 262 276 279 246 195 279 286 268 260 259 271 270 271 279 287 275 269 254 246 239 238 237 237 238 235 234 231 232 232 235 237 240 243 243 244 240 238
196 221 130 182 261 246 233 222 263 272 318 291 327 305 307 266 251 279 279 280 280 276 277 275 249 249 235 232 233 234 234 235 233 231 230 232 234 238 241 244 247 249 248 246
238 238 236 247 241 213 257 211 243 262 358 280 67 275 275 309 307 297 308 310 306 304 282 271 242 246 240 241 234 232 233 234 233 230 232 233 236 239 244 246 248 251 253 253
234 204 191 220 216 172 242 201 211 225 224 18 303 94 268 334 336 325 306 328 329 330 287 271 238 240 241 235 233 231 233 234 233 233 234 236 238 244 249 252 256 258 258 258
231 225 177 208 236 168 278 184 56 46 77 325 221 160 280 287 286 294 295 321 325 340 336 290 255 248 241 232 231 236 236 237 237 236 239 241 244 247 250 255 261 266 265 263
246 245 243 260 304 288 170 80 329 338 338 218 194 111 242 242 272 267 299 314 340 357 345 285 246 229 227 230 234 241 246 248 248 247 249 250 250 251 255 261 265 268 268 271
190 286 204 200 208 187 191 170 168 209 204 238 246 228 251 193 281 359 351 306 298 301 115 150 174 199 213 218 224 232 236 236 238 241 246 251 254 257 261 263 265 266 268 271
181 260 234 180 195 179 185 176 198 126 109 49 248 286 313 191 275 349 358 344 298 282 280 270 252 246 248 250 249 245 250 240 237 239 244 249 252 253 261 271 271 269 266 267
205 257 227 215 148 198 192 155 102 351 187 228 263 258 227 287 276 314 300 299 299 295 268 265 262 258 253 253 250 247 247 249 247 245 245 240 238 244 258 268 274 276 273 267
158 143 272 83 194 179 157 182 147 135 149 186 188 251 223 232 250 267 283 300 279 303 314 297 295 282 265 256 252 250 246 245 240 250 249 236 236 251 255 266 277 273 269 263
201 169 214 236 235 81 238 202 154 163 215 208 169 257 237 221 259 309 300 304 306 318 327 323 315 308 293 271 252 248 250 248 250 258 255 251 247 252 253 262 278 285 276 268
170 205 90 323 348 137 207 204 183 111 87 198 198 260 315 240 331 312 305 312 314 314 311 306 304 301 300 284 266 251 245 252 256 259 258 255 251 253 254 260 271 279 277 266
162 154 173 200 201 157 184 185 182 152 148 203 218 254 238 309 297 292 290 303 312 311 311 311 310 301 299 292 281 254 249 254 258 261 260 257 254 256 256 258 261 268 272 264
177 195 181 218 212 150 196 200 171 166 177 182 213 228 206 236 257 273 297 305 308 311 318 320 316 311 304 298 287 277 262 261 264 267 266 260 258 255 256 255 259 264 268 264
211 229 157 207 207 178 211 222 217 156 209 258 249 269 237 258 279 293 299 319 315 317 331 342 341 329 323 312 304 291 280 280 273 270 270 265 259 256 256 259 261 262 269 263
167 152 131 228 156 115 300 205 181 194 177 193 228 250 191 236 255 279 337 328 340 341 342 351 348 344 337 327 305 294 295 292 285 287 284 269 262 255 256 257 258 260 262 263
135 101 85 166 104 215 255 247 161 164 188 203 254 258 254 256 272 96 39 33 19 5 1 360 356 358 359 353 338 330 325 313 301 291 283 277 272 265 264 264 266 265 265 260
149 109 92 156 202 308 262 224 138 155 259 208 221 291 336 347 109 62 38 37 19 6 5 5 4 3 0 354 352 345 349 350 342 328 304 284 274 270 274 278 276 271 266 257
119 114 124 120 167 231 115 184 188 87 266 162 160 161 6 23 58 270 14 10 5 0 358 354 353 345 341 343 337 331 326 319 315 312 307 300 296 297 293 286 281 275 272 256
130 41 202 164 233 286 258 135 124 185 269 143 144 132 92 134 185 316 330 330 326 328 332 332 329 331 331 331 332 327 324 322 317 306 302 296 292 295 298 295 290 288 274 250
162 163 178 113 234 261 189 125 202 207 118 137 135 132 119 23 319 318 318 318 325 323 320 321 322 325 323 321 322 322 322 321 313 309 308 310 307 304 295 283 272 262 256 244
207 188 172 173 211 197 99 99 103 144 139 133 136 100 3 308 321 313 309 317 316 322 328 336 340 349 347 343 334 329 328 323 321 318 316 314 308 305 300 290 273 258 247 235
271 102 174 97 153 117 109 110 109 105 109 121 117 319 309 309 342 344 303 319 317 326 333 338 339 336 336 334 326 322 323 319 320 320 322 316 311 313 305 291 271 254 212 177
155 124 153 172 100 109 97 108 106 64 7 325 302 301 296 313 312 288 284 298 305 316 325 329 328 328 327 332 332 324 325 324 322 325 321 316 313 307 294 240 187 172 150 168
192 170 188 220 119 91 127 153 172 320 308 280 264 267 273 268 273 274 277 292 296 300 312 317 325 329 333 335 333 332 328 322 321 313 304 294 270 203 172 170 179 251 295 300
Wind_Speed_850mb
8 6 18 18 15 12 11 10 17 25 23 8 16 15 23 45 28 25 37 44 46 49 47 50 66 96 107 102 100 96 96 92 86 84 80 75 68 66 67 66 66 66 65 64
1 16 24 6 12 12 14 18 27 22 12 12 19 25 23 16 17 20 30 40 47 49 59 60 53 56 78 108 107 98 97 101 96 94 88 82 73 71 70 69 69 68 70 71
17 17 9 10 12 10 11 11 12 18 7 5 9 16 11 13 16 38 39 44 46 55 61 57 62 55 61 72 89 92 87 91 98 100 96 90 83 79 76 73 75 74 73 74
15 18 26 20 19 11 18 14 22 13 9 4 7 10 11 13 17 9 33 35 41 47 47 53 52 54 61 64 72 86 85 89 97 104 101 95 91 87 80 75 73 73 78 77
20 10 11 13 13 19 16 17 15 7 4 5 3 2 13 11 12 19 22 49 51 47 29 23 40 50 64 66 76 86 91 94 98 101 101 96 96 89 82 73 69 68 69 71
23 9 11 13 4 8 16 4 10 9 4 7 9 10 10 3 7 15 20 42 34 28 14 11 23 39 49 57 72 78 85 88 90 93 91 91 92 88 82 78 74 69 67 68
31 39 11 5 14 26 8 8 4 6 2 11 8 3 17 11 12 9 20 30 16 17 16 11 16 17 21 31 42 50 55 60 65 70 75 79 81 79 76 77 79 79 77 71
17 15 30 19 44 17 15 18 11 13 8 9 5 11 11 12 11 16 15 14 13 6 2 8 9 10 11 13 16 21 29 38 46 50 51 56 60 64 67 71 75 77 75 69
15 14 9 13 19 34 14 10 19 9 5 4 8 12 19 3 6 12 14 17 20 17 15 15 17 21 25 30 31 31 38 41 42 41 43 47 51 50 43 49 64 67 60 64
13 6 11 5 13 23 24 16 6 3 9 9 8 8 12 7 12 15 12 15 18 18 24 29 34 39 41 43 44 40 40 42 39 37 43 44 40 36 36 44 52 60 59 59
11 8 9 1 12 20 8 8 4 10 11 12 7 12 15 19 16 16 20 39 26 23 34 31 31 43 57 59 59 56 50 47 47 48 54 53 52 46 41 40 42 52 57 62
20 8 8 20 7 2 6 15 14 10 12 6 9 13 10 16 14 16 34 40 45 64 62 64 63 61 64 69 74 72 65 60 58 57 62 63 60 51 46 42 38 40 50 58
20 12 2 15 10 3 11 14 10 8 7 13 10 11 8 1 11 32 35 60 68 73 74 78 84 88 81 66 77 81 81 76 70 71 72 72 67 61 54 45 38 39 43 52
44 11 16 20 13 9 10 12 12 14 8 9 11 10 8 13 15 26 58 65 67 71 70 70 72 76 68 62 61 83 87 82 82 85 86 84 78 70 60 50 46 45 45 48
19 17 13 12 11 8 7 11 17 12 10 13 13 18 12 15 17 29 47 55 55 62 68 68 71 69 67 67 54 53 73 86 91 95 98 99 86 75 66 60 56 52 53 55
6 8 11 9 12 13 10 16 14 8 9 13 9 26 18 36 32 30 34 33 42 44 42 47 49 47 49 52 53 48 54 66 69 83 95 102 93 77 69 65 63 60 62 68
16 14 9 10 8 7 11 18 21 15 11 17 19 27 9 8 11 14 11 21 27 34 36 40 42 42 40 38 40 46 50 49 47 50 53 70 88 85 76 73 70 72 76 76
8 10 6 8 6 9 11 8 11 13 16 17 13 10 8 15 23 9 20 16 17 21 27 32 37 41 35 31 30 33 37 36 38 43 50 58 64 69 67 68 72 77 82 82
9 9 7 9 8 11 11 5 12 9 13 11 10 11 9 14 3 14 24 21 18 21 25 29 32 32 31 32 33 29 27 26 24 22 20 25 31 41 51 63 69 72 76 80
12 10 8 5 8 21 7 9 14 10 29 13 15 7 2 10 2 6 18 23 25 28 31 34 37 40 40 40 35 36 34 36 39 43 41 41 39 40 43 52 62 70 73 80
7 3 21 7 10 13 10 21 22 12 19 17 20 16 12 5 5 7 20 27 31 28 29 30 34 37 37 38 40 46 46 46 44 42 41 39 37 34 35 38 42 56 70 72
17 16 8 6 6 30 19 10 19 8 14 29 22 13 7 2 11 16 24 29 36 41 40 39 41 41 44 47 50 51 49 49 49 45 45 50 52 53 60 61 63 53 57 68
20 16 13 16 14 9 4 11 20 14 28 14 15 7 6 9 12 27 28 31 34 38 40 38 32 34 42 50 51 53 52 54 54 54 45 48 48 47 50 51 53 53 63 67
3 6 8 6 5 12 35 31 29 24 20 11 2 9 12 20 20 25 35 30 36 34 34 32 37 47 52 54 50 49 52 50 43 43 47 44 42 42 44 44 44 45 38 44
5 8 13 2 11 30 30 25 20 15 10 13 12 11 15 7 12 6 33 33 31 29 28 30 39 48 47 45 44 41 45 49 42 40 39 39 38 36 32 20 20 25 22 17
9 12 14 16 18 14 13 17 4 11 11 14 23 17 22 18 20 25 31 27 23 25 32 42 44 34 32 33 32 32 34 32 33 33 26 22 18 15 17 20 10 2 5 16
Wind_Direction_850mb
200 151 227 214 201 223 282 271 267 265 267 258 271 263 275 295 303 283 270 261 265 265 283 272 245 239 239 237 236 235 235 234 230 228 227 228 232 231 236 240 239 236 234 236
71 230 237 209 191 217 230 262 276 279 246 195 279 286 268 260 259 271 270 271 279 287 275 269 254 246 239 238 237 237 238 235 234 231 232 232 235 237 240 243 243 244 240 238
196 221 130 182 261 246 233 222 263 272 318 291 327 305 307 266 251 279 279 280 280 276 277 275 249 249 235 232 233 234 234 235 233 231 230 232 234 238 241 244 247 249 248 246
238 238 236 247 241 213 257 211 243 262 358 280 67 275 275 309 307 297 308 310 306 304 282 271 242 246 240 241 234 232 233 234 233 230 232 233 236 239 244 246 248 251 253 253
234 204 191 220 216 172 242 201 211 225 224 18 303 94 268 334 336 325 306 328 329 330 287 271 238 240 241 235 233 231 233 234 233 233 234 236 238 244 249 252 256 258 258 258
231 225 177 208 236 168 278 184 56 46 77 325 221 160 280 287 286 294 295 321 325 340 336 290 255 248 241 232 231 236 236 237 237 236 239 241 244 247 250 255 261 266 265 263
246 245 243 260 304 288 170 80 329 338 338 218 194 111 242 242 272 267 299 314 340 357 345 285 246 229 227 230 234 241 246 248 248 247 249 250 250 251 255 261 265 268 268 271
190 286 204 200 208 187 191 170 168 209 204 238 246 228 251 193 281 359 351 306 298 301 115 150 174 199 213 218 224 232 236 236 238 241 246 251 254 257 261 263 265 266 268 271
181 260 234 180 195 179 185 176 198 126 109 49 248 286 313 191 275 349 358 344 298 282 280 270 252 246 248 250 249 245 250 240 237 239 244 249 252 253 261 271 271 269 266 267
205 257 227 215 148 198 192 155 102 351 187 228 263 258 227 287 276 314 300 299 299 295 268 265 262 258 253 253 250 247 247 249 247 245 245 240 238 244 258 268 274 276 273 267
158 143 272 83 194 179 157 182 147 135 149 186 188 251 223 232 250 267 283 300 279 303 314 297 295 282 265 256 252 250 246 245 240 250 249 236 236 251 255 266 277 273 269 263
201 169 214 236 235 81 238 202 154 163 215 208 169 257 237 221 259 309 300 304 306 318 327 323 315 308 293 271 252 248 250 248 250 258 255 251 247 252 253 262 278 285 276 268
170 205 90 323 348 137 207 204 183 111 87 198 198 260 315 240 331 312 305 312 314 314 311 306 304 301 300 284 266 251 245 252 256 259 258 255 251 253 254 260 271 279 277 266
162 154 173 200 201 157 184 185 182 152 148 203 218 254 238 309 297 292 290 303 312 311 311 311 310 301 299 292 281 254 249 254 258 261 260 257 254 256 256 258 261 268 272 264
177 195 181 218 212 150 196 200 171 166 177 182 213 228 206 236 257 273 297 305 308 311 318 320 316 311 304 298 287 277 262 261 264 267 266 260 258 255 256 255 259 264 268 264
211 229 157 207 207 178 211 222 217 156 209 258 249 269 237 258 279 293 299 319 315 317 331 342 341 329 323 312 304 291 280 280 273 270 270 265 259 256 256 259 261 262 269 263
167 152 131 228 156 115 300 205 181 194 177 193 228 250 191 236 255 279 337 328 340 341 342 351 348 344 337 327 305 294 295 292 285 287 284 269 262 255 256 257 258 260 262 263
135 101 85 166 104 215 255 247 161 164 188 203 254 258 254 256 272 96 39 33 19 5 1 360 356 358 359 353 338 330 325 313 301 291 283 277 272 265 264 264 266 265 265 260
149 109 92 156 202 308 262 224 138 155 259 208 221 291 336 347 109 62 38 37 19 6 5 5 4 3 0 354 352 345 349 350 342 328 304 284 274 270 274 278 276 271 266 257
119 114 124 120 167 231 115 184 188 87 266 162 160 161 6 23 58 270 14 10 5 0 358 354 353 345 341 343 337 331 326 319 315 312 307 300 296 297 293 286 281 275 272 256
130 41 202 164 233 286 258 135 124 185 269 143 144 132 92 134 185 316 330 330 326 328 332 332 329 331 331 331 332 327 324 322 317 306 302 296 292 295 298 295 290 288 274 250
162 163 178 113 234 261 189 125 202 207 118 137 135 132 119 23 319 318 318 318 325 323 320 321 322 325 323 321 322 322 322 321 313 309 308 310 307 304 295 283 272 262 256 244
207 188 172 173 211 197 99 99 103 144 139 133 136 100 3 308 321 313 309 317 316 322 328 336 340 349 347 343 334 329 328 323 321 318 316 314 308 305 300 290 273 258 247 235
271 102 174 97 153 117 109 110 109 105 109 121 117 319 309 309 342 344 303 319 317 326 333 338 339 336 336 334 326 322 323 319 320 320 322 316 311 313 305 291 271 254 212 177
155 124 153 172 100 109 97 108 106 64 7 325 302 301 296 313 312 288 284 298 305 316 325 329 328 328 327 332 332 324 325 324 322 325 321 316 313 307 294 240 187 172 150 168
192 170 188 220 119 91 127 153 172 320 308 280 264 267 273 268 273 274 277 292 296 300 312 317 325 329 333 335 333 332 328 322 321 313 304 294 270 203 172 170 179 251 295 300